Location: Lake Sonoma
(38.7200°N, 123.0564°W)
Time: 03:42:51
(UTC-07:00)

Amateur Radio Satellites - All Passes

Search period start: 26 July 2017 03:12
Search period end: 27 July 2017 03:12
Location: Lake Sonoma, 38.7200°N, 123.0564°W

Satellite Date Start Highest point End Downlink Frequencies (MHz)
Time Altitude Azimuth
BUGSAT 1 26 Jul 03:13:19 03:15:51 16° 294° (WNW) 03:18:23 437.445
BEESAT 26 Jul 03:21:31 03:26:14 66° 74° (ENE) 03:30:59 436.000
AO-7 26 Jul 03:25:44 03:31:34 20° 93° (E) 03:37:21 .
nSIGHT-1 26 Jul 03:27:58 03:31:10 61° 36° (NE) 03:34:22 .
Gurwin Techsat 1B 26 Jul 03:28:33 03:33:50 66° 287° (WNW) 03:39:05 435.225
ITUPSAT 1 26 Jul 03:35:26 03:40:14 89° 90° (E) 03:45:02 437.325
MOZHAYETS 4 26 Jul 04:12:50 04:17:16 48° 261° (W) 04:21:42
SRMSAT 26 Jul 04:20:40 04:22:30 11° 183° (S) 04:24:19 437.500
ISS 26 Jul 04:23:20 04:26:20 34° 225° (SW) 04:29:19 437.550
PCSat 26 Jul 04:25:22 04:29:44 25° 107° (ESE) 04:34:07 145.827
Oscar 19 26 Jul 04:36:33 04:37:29 10° 301° (WNW) 04:38:24 437.125/150
KKS-1 26 Jul 04:45:42 04:49:49 37° 71° (ENE) 04:53:58 437.445
ITAMSAT 1 26 Jul 04:47:45 04:52:58 82° 103° (ESE) 04:58:09 435.822/435.867
CUBESAT XI-V 26 Jul 04:50:13 04:54:47 77° 76° (ENE) 04:59:24 437.345
BEESAT 26 Jul 05:02:42 05:04:25 12° 269° (W) 05:06:09 436.000
nSIGHT-1 26 Jul 05:05:49 05:07:11 12° 232° (SW) 05:08:33 .
YUBILEINY 26 Jul 05:07:21 05:14:10 24° 67° (ENE) 05:20:54 435.215
STARS 26 Jul 05:12:25 05:16:17 30° 69° (ENE) 05:20:09 437.465
AO-7 26 Jul 05:16:43 05:25:05 79° 291° (WNW) 05:33:23 .
SO-50 26 Jul 05:38:03 05:41:26 21° 111° (ESE) 05:44:47 436.795
PCSat 26 Jul 06:07:44 06:12:52 42° 304° (NW) 06:18:01 145.827
XW-2D 26 Jul 06:21:28 06:23:30 14° 93° (E) 06:25:32 145.860 - 145.880
KKS-1 26 Jul 06:23:20 06:26:28 19° 266° (W) 06:29:38 437.445
ITAMSAT 1 26 Jul 06:29:37 06:31:42 12° 300° (WNW) 06:33:47 435.822/435.867
XW-2B 26 Jul 06:31:04 06:33:41 18° 94° (E) 06:36:17 145.730 - 145.750
STRAND 1 26 Jul 06:32:39 06:35:40 16° 63° (ENE) 06:38:41 437.568
DOVE 4 26 Jul 06:32:53 06:38:08 64° 100° (E) 06:43:06 437.250
CUTE-I 26 Jul 06:44:25 06:48:53 26° 95° (E) 06:53:17 437.470
XW-2C 26 Jul 06:47:53 06:51:13 29° 97° (E) 06:54:31 145.795 - 145.815
STARS 26 Jul 06:49:05 06:52:35 23° 265° (W) 06:56:07 437.465
NUDT-PHONESAT 26 Jul 06:50:51 06:53:49 23° 96° (E) 06:56:46 437.300
YUBILEINY 26 Jul 07:03:01 07:11:42 69° 267° (W) 07:20:18 435.215
HO-68 26 Jul 07:04:32 07:08:13 15° 90° (E) 07:11:54 435.675
KAITUO 1B 26 Jul 07:06:42 07:10:12 38° 98° (E) 07:13:41 145.475/437.950
AO-7 26 Jul 07:11:32 07:16:32 18° 309° (NW) 07:21:32 .
LilacSat-2 26 Jul 07:12:24 07:16:10 67° 101° (E) 07:19:57 437.200
SO-50 26 Jul 07:17:21 07:21:36 39° 307° (NW) 07:25:52 436.795
XW-2F 26 Jul 07:24:22 07:28:08 87° 103° (ESE) 07:31:54 145.980 - 146.000
CUTE 1.7 + AOD 2 26 Jul 07:36:30 07:39:30 19° 94° (E) 07:42:29 437.475
SEEDS 26 Jul 07:46:41 07:49:07 15° 92° (E) 07:51:32 437.485
XW-2A 26 Jul 07:49:52 07:51:05 12° 93° (E) 07:52:19 145.665 - 145.685
XW-2D 26 Jul 07:54:21 07:57:47 34° 287° (WNW) 08:01:13 145.860 - 145.880
XW-2B 26 Jul 08:04:38 08:07:51 27° 289° (WNW) 08:11:04 145.730 - 145.750
STRAND 1 26 Jul 08:09:12 08:14:17 62° 258° (WSW) 08:19:25 437.568
DOVE 4 26 Jul 08:12:06 08:15:09 16° 297° (WNW) 08:18:08 437.250
XW-2C 26 Jul 08:22:42 08:25:09 17° 292° (WNW) 08:27:38 145.795 - 145.815
CUTE-I 26 Jul 08:24:04 08:28:57 37° 291° (WNW) 08:33:47 437.470
UWE-3 26 Jul 08:24:47 08:27:39 18° 93° (E) 08:30:29 435.000/436.395/437.385
NUDT-PHONESAT 26 Jul 08:24:49 08:27:35 20° 290° (WNW) 08:30:19 437.300
AAUSAT CUBESAT 2 26 Jul 08:25:48 08:28:46 19° 94° (E) 08:31:43 437.432
ZACube-1 26 Jul 08:36:20 08:38:11 13° 91° (E) 08:40:01 437.345
KAITUO 1B 26 Jul 08:42:03 08:43:51 13° 293° (WNW) 08:45:38 145.475/437.950
FO-29 26 Jul 08:43:43 08:50:01 29° 62° (ENE) 08:56:25 435.910
HO-68 26 Jul 08:49:34 08:56:45 89° 286° (WNW) 09:03:55 435.675
Oscar 11 26 Jul 08:59:17 09:02:04 17° 93° (E) 09:04:52 .
CUBEBUG 2 26 Jul 09:04:57 09:09:12 83° 281° (W) 09:13:20 437.445
YUBILEINY 26 Jul 09:04:58 09:06:43 11° 286° (WNW) 09:08:27 435.215
CUTE 1.7 + AOD 2 26 Jul 09:11:33 09:15:23 33° 288° (WNW) 09:19:13 437.475
AO-73 26 Jul 09:14:08 09:17:50 31° 97° (E) 09:21:31 145.935
XW-2A 26 Jul 09:20:56 09:23:55 30° 287° (WNW) 09:26:53 145.665 - 145.685
SEEDS 26 Jul 09:20:58 09:24:57 41° 287° (WNW) 09:28:56 437.485
TIGRISAT 26 Jul 09:33:29 09:37:08 23° 68° (ENE) 09:40:45 435.000
PRISM 26 Jul 09:56:53 10:00:36 34° 71° (ENE) 10:04:21 437.425
UWE-3 26 Jul 10:00:27 10:04:11 32° 289° (WNW) 10:07:52 435.000/436.395/437.385
AAUSAT CUBESAT 2 26 Jul 10:00:32 10:04:16 32° 288° (WNW) 10:07:59 437.432
ZACube-1 26 Jul 10:10:44 10:14:42 45° 287° (WNW) 10:18:39 437.345
UNISAT 6 26 Jul 10:25:00 10:29:40 89° 256° (WSW) 10:34:16 437.425
FO-29 26 Jul 10:26:53 10:34:24 63° 260° (W) 10:42:14 435.910
Oscar 11 26 Jul 10:34:20 10:38:20 38° 288° (WNW) 10:42:20 .
HO-68 26 Jul 10:39:17 10:43:29 17° 304° (NW) 10:47:42 435.675
M-CUBED/EXP-1 PRIME 26 Jul 10:44:37 10:48:14 79° 71° (ENE) 10:52:12 437.505
DELFI C3 26 Jul 10:49:27 10:53:28 78° 101° (ESE) 10:57:28 145.870
AO-73 26 Jul 10:50:56 10:53:51 19° 292° (WNW) 10:56:44 145.935
NO-84 26 Jul 10:51:58 10:54:52 60° 132° (SE) 10:57:59 435.350 FM
EO-88 26 Jul 10:55:14 10:58:49 54° 100° (E) 11:02:23 145.990 - 145.960
EO-79 26 Jul 10:59:16 11:00:24 11° 63° (ENE) 11:01:32 145.935-145.965
TIGRISAT 26 Jul 11:09:28 11:13:37 32° 263° (W) 11:17:45 435.000
PRISM 26 Jul 11:33:16 11:35:57 17° 266° (W) 11:38:40 437.425
ESTCUBE 1 26 Jul 11:54:10 11:57:45 23° 95° (E) 12:01:18 437.505/2401.250
DUCHIFAT 1 26 Jul 12:02:06 12:06:08 44° 73° (ENE) 12:10:10 145.980
AIST 2D 26 Jul 12:06:36 12:09:56 44° 261° (W) 12:13:18 435.315
POLYITAN 1 26 Jul 12:06:43 12:10:56 64° 75° (ENE) 12:15:11 437.675
QB50P2 26 Jul 12:19:50 12:24:06 81° 258° (WSW) 12:28:23 145.880/145.840
BUGSAT 1 26 Jul 12:25:27 12:28:48 23° 69° (ENE) 12:32:09 437.445
LO-87 26 Jul 12:27:57 12:31:33 77° 282° (WNW) 12:35:06 145.935 - 145.965
NANOSAT C BR1 26 Jul 12:30:19 12:34:34 75° 259° (WSW) 12:38:50 145.865
NO-84 26 Jul 12:30:46 12:32:39 15° 333° (NNW) 12:34:37 435.350 FM
EO-79 26 Jul 12:31:21 12:35:35 65° 259° (WSW) 12:39:50 145.935-145.965
Oscar 19 26 Jul 12:33:00 12:35:40 14° 62° (ENE) 12:38:21 437.125/150
VELOX 1 26 Jul 12:34:32 12:36:25 12° 91° (E) 12:38:18 145.980
BEESAT 3 26 Jul 12:41:24 12:45:21 69° 119° (ESE) 12:49:22 437.485
AO-85 26 Jul 12:49:37 12:53:38 84° 120° (ESE) 12:57:34 145.980
Gurwin Techsat 1B 26 Jul 13:10:03 13:14:00 22° 65° (ENE) 13:17:57 435.225
SPROUT 26 Jul 13:11:44 13:15:44 39° 98° (E) 13:19:43 437.525
PCSat 26 Jul 13:14:18 13:18:01 18° 47° (NE) 13:21:42 145.827
50 SAT 26 Jul 13:17:58 13:19:28 12° 93° (E) 13:20:59 437.505
BEESAT 2 26 Jul 13:24:50 13:28:47 68° 118° (ESE) 13:32:47 435.950
ESTCUBE 1 26 Jul 13:30:32 13:34:32 31° 290° (WNW) 13:38:31 437.505/2401.250
DUCHIFAT 1 26 Jul 13:39:43 13:41:59 14° 268° (W) 13:44:16 145.980
BUGSAT 1 26 Jul 14:00:22 14:04:00 27° 264° (W) 14:07:39 437.445
VELOX 1 26 Jul 14:08:48 14:13:11 55° 286° (WNW) 14:17:31 145.980
DX 1 26 Jul 14:09:05 14:13:15 41° 99° (E) 14:17:23 434.975-435.025
Oscar 19 26 Jul 14:09:18 14:14:23 68° 258° (WSW) 14:19:30 437.125/150
SO-50 26 Jul 14:10:09 14:12:59 16° 44° (NE) 14:15:51 436.795
BEESAT 3 26 Jul 14:21:31 14:23:22 13° 316° (NW) 14:25:14 437.485
AO-7 26 Jul 14:23:19 14:30:04 28° 57° (ENE) 14:36:48 .
ITAMSAT 1 26 Jul 14:28:11 14:30:42 14° 61° (ENE) 14:33:13 435.822/435.867
AO-85 26 Jul 14:34:09 14:34:33 10° 318° (NW) 14:34:57 145.980
UKube-1 26 Jul 14:48:11 14:52:32 77° 103° (ESE) 14:56:50 .
Gurwin Techsat 1B 26 Jul 14:48:30 14:53:35 46° 261° (W) 14:58:43 435.225
SPROUT 26 Jul 14:48:34 14:51:19 17° 294° (WNW) 14:54:02 437.525
RS-15 26 Jul 14:49:04 14:59:17 34° 104° (ESE) 15:09:39 29.354- 29.394
50 SAT 26 Jul 14:49:13 14:52:17 31° 288° (WNW) 14:55:20 437.505
PCSat 26 Jul 14:56:32 15:01:57 71° 245° (WSW) 15:07:19 145.827
BEESAT 2 26 Jul 15:05:03 15:06:58 13° 316° (NW) 15:08:54 435.950
BEESAT 26 Jul 15:23:55 15:27:10 18° 94° (E) 15:30:24 436.000
ITUPSAT 1 26 Jul 15:37:47 15:41:41 25° 96° (E) 15:45:33 437.325
O/OREOS (USA 219) 26 Jul 15:43:26 15:47:54 72° 291° (WNW) 15:52:23 437.305
DX 1 26 Jul 15:46:14 15:49:05 17° 295° (WNW) 15:51:55 434.975-435.025
SO-50 26 Jul 15:49:21 15:53:53 66° 241° (WSW) 15:58:25 436.795
ITAMSAT 1 26 Jul 16:04:16 16:09:29 76° 258° (WSW) 16:14:44 435.822/435.867
MOZHAYETS 4 26 Jul 16:08:57 16:13:16 41° 98° (E) 16:17:34
AO-7 26 Jul 16:13:52 16:22:10 67° 256° (WSW) 16:30:31 .
CUBESAT XI-V 26 Jul 16:48:40 16:52:13 21° 94° (E) 16:55:45 437.345
RS-15 26 Jul 16:58:39 17:10:50 71° 305° (NW) 17:23:13 29.354- 29.394
BEESAT 26 Jul 17:00:37 17:05:07 43° 289° (WNW) 17:09:35 436.000
ITUPSAT 1 26 Jul 17:15:17 17:19:29 32° 291° (WNW) 17:23:40 437.325
NO-84 26 Jul 17:25:51 17:29:09 27° 36° (NE) 17:32:39 435.350 FM
XW-2C 26 Jul 17:29:25 17:31:04 13° 67° (ENE) 17:32:44 145.795 - 145.815
HO-68 26 Jul 17:35:31 17:36:57 11° 51° (NE) 17:38:22 435.675
DOVE 4 26 Jul 17:36:12 17:40:57 53° 73° (ENE) 17:45:59 437.250
KAITUO 1B 26 Jul 17:46:29 17:48:39 15° 68° (ENE) 17:50:49 145.475/437.950
MOZHAYETS 4 26 Jul 17:46:59 17:50:06 18° 294° (WNW) 17:53:13
LilacSat-2 26 Jul 17:53:11 17:56:21 26° 71° (ENE) 17:59:31 437.200
XW-2F 26 Jul 18:03:56 18:07:14 31° 72° (ENE) 18:10:33 145.980 - 146.000
CUTE-I 26 Jul 18:04:41 18:09:36 38° 69° (ENE) 18:14:33 437.470
YUBILEINY 26 Jul 18:07:01 18:14:12 29° 83° (E) 18:21:22 435.215
KKS-1 26 Jul 18:13:48 18:18:19 89° 284° (WNW) 18:22:46 437.445
AO-7 26 Jul 18:15:46 18:16:18 10° 273° (W) 18:16:50 .
CUBESAT XI-V 26 Jul 18:25:22 18:29:38 36° 289° (WNW) 18:33:55 437.345
CUTE 1.7 + AOD 2 26 Jul 18:29:28 18:30:56 12° 64° (ENE) 18:32:24 437.475
XW-2D 26 Jul 18:33:31 18:37:15 87° 75° (ENE) 18:41:01 145.860 - 145.880
STARS 26 Jul 18:38:29 18:42:53 70° 101° (ESE) 18:47:14 437.465
XW-2B 26 Jul 18:43:39 18:47:23 72° 259° (WSW) 18:51:08 145.730 - 145.750
XW-2C 26 Jul 19:01:20 19:04:53 40° 261° (W) 19:08:26 145.795 - 145.815
NUDT-PHONESAT 26 Jul 19:01:31 19:05:08 55° 260° (W) 19:08:45 437.300
NO-84 26 Jul 19:03:01 19:06:43 39° 230° (SW) 19:10:38 435.350 FM
DOVE 4 26 Jul 19:15:56 19:19:00 16° 270° (W) 19:22:08 437.250
HO-68 26 Jul 19:16:11 19:23:12 60° 70° (ENE) 19:30:15 435.675
RS-15 26 Jul 19:16:16 19:26:06 26° 332° (NNW) 19:35:56 29.354- 29.394
AAUSAT CUBESAT 2 26 Jul 19:16:37 19:17:36 11° 64° (ENE) 19:18:35 437.432
KAITUO 1B 26 Jul 19:19:04 19:22:22 31° 263° (W) 19:25:41 145.475/437.950
UWE-3 26 Jul 19:20:55 19:23:26 15° 66° (ENE) 19:25:54 435.000/436.395/437.385
Tancredo 1 26 Jul 19:22:09 19:24:51 35° 136° (SE) 19:27:34 437.200
ISS 26 Jul 19:27:13 19:28:55 14° 129° (SE) 19:30:37 437.550
LilacSat-2 26 Jul 19:27:56 19:30:36 18° 266° (W) 19:33:17 437.200
XW-2F 26 Jul 19:39:13 19:41:26 15° 267° (W) 19:43:38 145.980 - 146.000
CUTE-I 26 Jul 19:45:18 19:49:42 25° 265° (W) 19:54:08 437.470
XW-2A 26 Jul 19:50:08 19:53:27 58° 77° (ENE) 19:56:46 145.665 - 145.685
Oscar 11 26 Jul 19:54:16 19:55:44 12° 64° (ENE) 19:57:13 .
CUBEBUG 2 26 Jul 20:00:44 20:05:24 68° 75° (ENE) 20:09:58 437.445
YUBILEINY 26 Jul 20:01:44 20:10:23 58° 281° (WNW) 20:19:06 435.215
CUTE 1.7 + AOD 2 26 Jul 20:02:07 20:06:14 57° 259° (W) 20:10:23 437.475
nSIGHT-1 26 Jul 20:06:07 20:09:07 36° 135° (SE) 20:12:08 .
AO-73 26 Jul 20:08:23 20:11:49 23° 69° (ENE) 20:15:12 145.935
SEEDS 26 Jul 20:10:36 20:14:44 75° 259° (W) 20:18:55 437.485
STARS 26 Jul 20:17:28 20:18:36 11° 298° (WNW) 20:19:43 437.465
STRAND 1 26 Jul 20:21:02 20:26:00 49° 100° (E) 20:30:55 437.568
AAUSAT CUBESAT 2 26 Jul 20:48:28 20:52:30 60° 260° (W) 20:56:35 437.432
UWE-3 26 Jul 20:54:59 20:59:27 52° 260° (W) 21:03:49 435.000/436.395/437.385
Tancredo 1 26 Jul 20:57:56 21:00:19 22° 332° (NNW) 21:02:41 437.200
BEESAT 3 26 Jul 20:59:40 21:03:05 26° 51° (NE) 21:06:27 437.485
ISS 26 Jul 21:01:51 21:05:03 55° 324° (NW) 21:08:15 437.550
ZACube-1 26 Jul 21:04:19 21:08:45 75° 259° (W) 21:13:06 437.345
HO-68 26 Jul 21:05:43 21:11:18 24° 266° (W) 21:16:55 435.675
AO-85 26 Jul 21:21:16 21:25:22 46° 56° (NE) 21:29:44 145.980
Oscar 11 26 Jul 21:27:05 21:31:19 61° 260° (W) 21:35:35 .
EO-88 26 Jul 21:32:17 21:34:54 19° 69° (ENE) 21:37:31 145.990 - 145.960
DELFI C3 26 Jul 21:33:23 21:36:56 34° 72° (ENE) 21:40:32 145.870
RS-15 26 Jul 21:36:37 21:44:50 19° 9° (N) 21:52:51 29.354- 29.394
FO-29 26 Jul 21:40:28 21:45:38 22° 89° (E) 21:50:20 435.910
CUBEBUG 2 26 Jul 21:41:07 21:42:22 11° 270° (W) 21:43:36 437.445
nSIGHT-1 26 Jul 21:42:51 21:45:35 25° 332° (NNW) 21:48:19 .
BEESAT 2 26 Jul 21:43:56 21:47:25 27° 51° (NE) 21:50:52 435.950
AO-73 26 Jul 21:44:00 21:47:52 30° 263° (W) 21:51:42 145.935
STRAND 1 26 Jul 22:01:15 22:04:47 19° 296° (WNW) 22:08:17 437.568
UNISAT 6 26 Jul 22:19:00 22:22:08 20° 94° (E) 22:25:14 437.425
BEESAT 3 26 Jul 22:37:16 22:40:34 25° 248° (WSW) 22:43:48 437.485
ISS 26 Jul 22:40:29 22:42:06 13° 343° (NNW) 22:43:42 437.550
ESTCUBE 1 26 Jul 22:52:53 22:55:57 18° 66° (ENE) 22:59:01 437.505/2401.250
TIGRISAT 26 Jul 23:01:48 23:06:02 56° 100° (E) 23:10:11 435.000
LO-87 26 Jul 23:02:31 23:05:45 31° 72° (ENE) 23:09:01 145.935 - 145.965
AO-85 26 Jul 23:02:41 23:05:28 17° 249° (WSW) 23:08:21 145.980
EO-88 26 Jul 23:05:26 23:08:24 24° 264° (W) 23:11:24 145.990 - 145.960
DELFI C3 26 Jul 23:09:24 23:11:48 16° 267° (W) 23:14:13 145.870
PRISM 26 Jul 23:13:58 23:18:09 70° 102° (ESE) 23:22:18 437.425
BEESAT 2 26 Jul 23:21:42 23:25:05 26° 247° (WSW) 23:28:25 435.950
FO-29 26 Jul 23:24:21 23:31:13 57° 289° (WNW) 23:37:14 435.910
JUGNU 26 Jul 23:26:41 23:27:51 11° 173° (S) 23:29:01 437.505
VELOX 1 26 Jul 23:32:17 23:32:46 10° 62° (ENE) 23:33:15 145.980
AIST 2D 26 Jul 23:34:03 23:35:47 13° 93° (E) 23:37:31 435.315
RS-15 26 Jul 23:50:52 00:02:08 41° 42° (NE) 00:12:51 29.354- 29.394
UNISAT 6 26 Jul 23:55:04 23:58:54 32° 290° (WNW) 00:02:40 437.425
POLYITAN 1 26 Jul 23:55:13 23:56:26 11° 91° (E) 23:57:39 437.675
M-CUBED/EXP-1 PRIME 26 Jul 23:57:45 00:02:24 75° 107° (ESE) 00:07:03 437.505
SPROUT 27 Jul 00:03:49 00:07:22 26° 69° (ENE) 00:10:56 437.525
QB50P2 27 Jul 00:06:58 00:09:49 18° 94° (E) 00:12:39 145.880/145.840
O/OREOS (USA 219) 27 Jul 00:16:34 00:19:30 17° 57° (ENE) 00:22:25 437.305
NANOSAT C BR1 27 Jul 00:16:47 00:19:43 18° 94° (E) 00:22:39 145.865
EO-79 27 Jul 00:17:55 00:21:09 21° 95° (E) 00:24:22 145.935-145.965
ESTCUBE 1 27 Jul 00:28:15 00:32:26 39° 262° (W) 00:36:39 437.505/2401.250
LO-87 27 Jul 00:37:15 00:39:15 14° 267° (W) 00:41:17 145.935 - 145.965
TIGRISAT 27 Jul 00:40:28 00:42:12 12° 296° (WNW) 00:43:55 435.000
nSIGHT-1 27 Jul 00:59:57 01:00:32 10° 12° (NNE) 01:01:08 .
DX 1 27 Jul 01:03:16 01:07:06 31° 69° (ENE) 01:10:56 434.975-435.025
VELOX 1 27 Jul 01:04:08 01:08:33 76° 258° (WSW) 01:13:00 145.980
AIST 2D 27 Jul 01:05:57 01:09:03 30° 287° (WNW) 01:12:09 435.315
JUGNU 27 Jul 01:14:03 01:15:57 11° 184° (S) 01:17:51 437.505
50 SAT 27 Jul 01:18:31 01:21:51 63° 76° (ENE) 01:25:15 437.505
DUCHIFAT 1 27 Jul 01:22:33 01:26:44 82° 286° (WNW) 01:30:53 145.980
POLYITAN 1 27 Jul 01:28:26 01:32:33 54° 286° (WNW) 01:36:36 437.675
M-CUBED/EXP-1 PRIME 27 Jul 01:34:10 01:36:11 13° 302° (WNW) 01:38:13 437.505
SPROUT 27 Jul 01:39:37 01:43:10 25° 264° (W) 01:46:45 437.525
UKube-1 27 Jul 01:40:57 01:45:08 53° 73° (ENE) 01:49:22 .
QB50P2 27 Jul 01:41:52 01:45:41 34° 289° (WNW) 01:49:29 145.880/145.840
BUGSAT 1 27 Jul 01:42:48 01:46:42 43° 99° (E) 01:50:33 437.445
Tancredo 1 27 Jul 01:46:44 01:49:21 28° 31° (NNE) 01:51:59 437.200
NANOSAT C BR1 27 Jul 01:51:44 01:55:29 32° 289° (WNW) 01:59:13 145.865
EO-79 27 Jul 01:53:16 01:56:53 28° 290° (WNW) 02:00:30 145.935-145.965
O/OREOS (USA 219) 27 Jul 01:54:50 01:59:08 46° 254° (WSW) 02:03:27 437.305
ISS 27 Jul 01:55:01 01:57:19 18° 23° (NNE) 01:59:38 437.550
RS-15 27 Jul 02:03:32 02:15:22 66° 246° (WSW) 02:26:32 29.354- 29.394
SRMSAT 27 Jul 02:19:58 02:21:14 11° 174° (S) 02:22:29 437.500
Oscar 19 27 Jul 02:22:09 02:27:08 46° 100° (E) 02:32:06 437.125/150
BEESAT 27 Jul 02:29:11 02:32:32 19° 65° (ENE) 02:35:53 436.000
nSIGHT-1 27 Jul 02:34:46 02:37:44 32° 31° (NNE) 02:40:41 .
DX 1 27 Jul 02:39:54 02:43:16 22° 265° (W) 02:46:39 434.975-435.025
ITUPSAT 1 27 Jul 02:43:15 02:47:11 26° 67° (ENE) 02:51:06 437.325
